Date String (YYYY-MM-DD hh:mm:ss) UTC,Instrument flags,absolute air pressure of the measurement (hPa),sample flow rate (lpm),inlet stack bypass flow (lpm),air temperature of the measurement (°C),ambient temperature measured by the external sensor (°C),aerosol sample conditioner tube jacket temperature (°C),OPC LED temperature (°C),internal box temperature (°C),relative humidity of the measurement (%),span deviation,mass concentration of particles derived from Lorenz-Mie calculation of OPC scattering (μg/m³),mass concentration of particles derived from Lorenz-Mie calculation of OPC scattering (μg/m³),mass concentration of particles derived from Lorenz-Mie calculation of OPC scattering (μg/m³)
DateTimeUTC,F1_M11,P_M11,Q1_M11,Q2_M11,T1_M11,T2_M11,T3_M11,T4_M11,T5_M11,U1_M11,ZSPAN_M11,X2_M11,X0_M11,X1_M11
2023-12-26 15:00:00,SystemResetWarning,0823.5,5.00,000.00,018.7,017.4,000.0,027.3,020.0,12.9,0000.0,0001.13,0006.49,0000.61
2023-12-26 15:01:00,SystemResetWarning,0823.5,5.00,000.00,018.7,017.4,000.0,027.3,020.0,12.9,0000.0,0001.12,0005.29,0000.61
2023-12-26 15:02:00,SystemResetWarning,0823.5,5.00,000.00,018.7,017.4,000.0,027.3,020.0,12.8,0000.0,0001.16,0004.07,0000.62
2023-12-26 15:03:00,SystemResetWarning,0823.5,5.00,000.00,018.7,017.6,000.0,027.2,020.1,12.9,0000.0,0001.17,0004.67,0000.63
2023-12-26 15:04:00,SystemResetWarning,0823.5,4.99,000.00,018.8,018.4,000.0,027.2,020.5,12.6,0000.0,0001.13,0005.32,0000.63
2023-12-26 15:05:00,SystemResetWarning,0823.5,5.00,000.00,018.9,019.1,000.0,027.2,020.7,12.5,0000.0,0001.14,0005.32,0000.65
2023-12-26 15:06:00,SystemResetWarning,0823.5,5.00,000.00,019.0,019.0,000.0,027.2,020.3,12.5,0000.0,0001.16,0005.29,0000.66
2023-12-26 15:07:00,SystemResetWarning,0823.5,4.99,000.00,018.9,018.8,000.0,027.2,020.1,12.5,0000.0,0001.17,0005.33,0000.67
2023-12-26 15:08:00,SystemResetWarning,0823.5,5.00,000.00,018.9,018.6,000.0,027.2,020.0,12.4,0000.0,0001.18,0004.42,0000.66
2023-12-26 15:09:00,SystemResetWarning,0823.5,5.00,000.00,018.8,018.4,000.0,027.2,020.0,12.3,0000.0,0001.17,0004.13,0000.65
2023-12-26 15:10:00,SystemResetWarning,0823.5,5.00,000.00,018.8,018.2,000.0,027.2,020.0,12.4,0000.0,0001.18,0004.12,0000.65
2023-12-26 15:11:00,SystemResetWarning,0823.5,5.00,000.00,018.8,018.1,000.0,027.2,020.0,12.5,0000.0,0001.18,0004.07,0000.65
2023-12-26 15:12:00,SystemResetWarning,0823.5,5.00,000.00,018.8,018.0,000.0,027.2,020.0,12.4,0000.0,0001.20,0004.27,0000.66
2023-12-26 15:13:00,SystemResetWarning,0823.5,5.00,000.00,018.8,017.9,000.0,027.2,020.0,12.3,0000.0,0001.22,0004.33,0000.66
2023-12-26 15:14:00,SystemResetWarning,0823.5,4.99,000.00,018.8,017.8,000.0,027.2,020.0,12.2,0000.0,0001.22,0004.05,0000.65
2023-12-26 15:15:00,SystemResetWarning,0823.5,4.99,000.00,018.7,017.7,000.0,027.3,020.0,12.0,0000.0,0001.22,0003.27,0000.65
2023-12-26 15:16:00,SystemResetWarning,0823.5,4.99,000.00,018.7,017.7,000.0,027.3,020.0,11.9,0000.0,0001.17,0003.42,0000.62
2023-12-26 15:17:00,SystemResetWarning,0823.6,5.01,000.00,018.7,017.6,000.0,027.3,020.0,11.8,0000.0,0001.20,0003.57,0000.60
2023-12-26 15:18:00,SystemResetWarning,0823.6,5.01,000.00,018.7,017.6,000.0,027.3,020.0,11.8,0000.0,0001.17,0003.59,0000.58
2023-12-26 15:19:00,SystemResetWarning,0823.5,5.00,000.00,018.7,017.5,000.0,027.3,020.0,11.8,0000.0,0001.11,0003.16,0000.57
2023-12-26 15:20:00,SystemResetWarning,0823.6,4.99,000.00,018.7,017.5,000.0,027.3,020.0,11.8,0000.0,0001.08,0003.02,0000.56
2023-12-26 15:21:00,SystemResetWarning,0823.6,4.99,000.00,018.7,017.5,000.0,027.3,020.0,11.8,0000.0,0001.07,0003.13,0000.56
2023-12-26 15:22:00,SystemResetWarning,0823.6,5.00,000.00,018.7,017.5,000.0,027.3,020.0,11.9,0000.0,0001.05,0003.25,0000.55
2023-12-26 15:23:00,SystemResetWarning,0823.6,5.01,000.00,018.7,017.5,000.0,027.3,020.0,11.9,0000.0,0000.99,0003.67,0000.53
2023-12-26 15:24:00,SystemResetWarning,0823.6,5.00,000.00,018.7,017.5,000.0,027.3,020.0,11.8,0000.0,0000.94,0004.36,0000.52
2023-12-26 15:25:00,SystemResetWarning,0823.6,5.01,000.00,018.7,017.5,000.0,027.3,020.0,11.6,0000.0,0000.90,0004.20,0000.50
2023-12-26 15:26:00,SystemResetWarning,0823.6,5.00,000.00,018.7,017.4,000.0,027.3,020.0,11.4,0000.0,0000.87,0004.25,0000.48
2023-12-26 15:27:00,SystemResetWarning,0823.7,5.00,000.00,018.7,017.4,000.0,027.3,020.0,11.4,0000.0,0000.87,0005.29,0000.47
2023-12-26 15:28:00,SystemResetWarning,0823.7,4.99,000.00,018.7,017.4,000.0,027.3,020.0,11.5,0000.0,0000.84,0005.26,0000.47
2023-12-26 15:29:00,SystemResetWarning,0823.7,4.99,000.00,018.7,017.4,000.0,027.3,020.0,11.5,0000.0,0000.81,0005.35,0000.46
2023-12-26 15:30:00,SystemResetWarning,0823.7,5.00,000.00,018.7,017.5,000.0,027.2,020.1,11.5,0000.0,0000.83,0005.45,0000.46
2023-12-26 15:31:00,SystemResetWarning,0823.7,5.02,000.00,018.8,018.2,000.0,027.2,020.5,11.5,0000.0,0000.82,0005.43,0000.45
2023-12-26 15:32:00,SystemResetWarning,0823.7,4.99,000.00,018.9,019.0,000.0,027.2,020.7,11.6,0000.0,0000.82,0005.38,0000.44
2023-12-26 15:33:00,SystemResetWarning,0823.8,4.98,000.00,019.0,019.0,000.0,027.2,020.3,11.6,0000.0,0000.83,0005.11,0000.43
2023-12-26 15:34:00,SystemResetWarning,0823.8,5.00,000.00,018.9,018.8,000.0,027.2,020.0,11.7,0000.0,0000.81,0005.03,0000.42
2023-12-26 15:35:00,SystemResetWarning,0823.7,5.00,000.00,018.9,018.6,000.0,027.2,020.0,11.8,0000.0,0000.81,0003.86,0000.41
2023-12-26 15:36:00,SystemResetWarning,0823.7,5.00,000.00,018.9,018.4,000.0,027.2,020.0,11.9,0000.0,0000.82,0004.05,0000.41
2023-12-26 15:37:00,SystemResetWarning,0823.7,5.00,000.00,018.8,018.2,000.0,027.2,020.0,12.1,0000.0,0000.81,0004.00,0000.41
2023-12-26 15:38:00,SystemResetWarning,0823.8,5.00,000.00,018.8,018.1,000.0,027.2,020.0,11.9,0000.0,0000.83,0002.66,0000.41
2023-12-26 15:39:00,SystemResetWarning,0823.7,5.00,000.00,018.8,018.0,000.0,027.2,020.0,11.8,0000.0,0000.84,0002.53,0000.41
2023-12-26 15:40:00,SystemResetWarning,0823.7,5.02,000.00,018.8,018.0,000.0,027.2,020.0,11.8,0000.0,0000.85,0002.32,0000.41
2023-12-26 15:41:00,SystemResetWarning,0823.8,5.00,000.00,018.8,017.9,000.0,027.2,020.0,11.6,0000.0,0000.84,0002.24,0000.40
2023-12-26 15:42:00,SystemResetWarning,0823.8,5.00,000.00,018.8,017.8,000.0,027.3,020.0,11.5,0000.0,0000.86,0002.32,0000.40
2023-12-26 15:43:00,SystemResetWarning,0823.8,4.99,000.00,018.8,017.8,000.0,027.3,020.0,11.5,0000.0,0000.85,0002.33,0000.41
2023-12-26 15:44:00,SystemResetWarning,0823.8,5.01,000.00,018.8,017.7,000.0,027.3,020.0,11.5,0000.0,0000.85,0002.40,0000.41
2023-12-26 15:45:00,SystemResetWarning,0823.8,5.01,000.00,018.8,017.7,000.0,027.3,020.0,11.6,0000.0,0000.85,0002.47,0000.42
2023-12-26 15:46:00,SystemResetWarning,0823.8,5.01,000.00,018.8,017.7,000.0,027.3,020.0,11.6,0000.0,0000.85,0003.30,0000.42
2023-12-26 15:47:00,SystemResetWarning,0823.8,5.00,000.00,018.8,017.6,000.0,027.3,020.0,11.5,0000.0,0000.85,0003.09,0000.42
2023-12-26 15:48:00,SystemResetWarning,0823.8,5.00,000.00,018.8,017.6,000.0,027.3,020.0,11.5,0000.0,0000.87,0003.62,0000.42
2023-12-26 15:49:00,SystemResetWarning,0823.8,4.99,000.00,018.7,017.5,000.0,027.3,020.0,11.4,0000.0,0000.87,0004.05,0000.41
2023-12-26 15:50:00,SystemResetWarning,0823.8,4.99,000.00,018.7,017.5,000.0,027.3,020.0,11.4,0000.0,0000.91,0004.65,0000.41
2023-12-26 15:51:00,SystemResetWarning,0823.8,5.01,000.00,018.7,017.5,000.0,027.3,020.0,11.3,0000.0,0000.90,0004.74,0000.40
2023-12-26 15:52:00,SystemResetWarning,0823.8,5.01,000.00,018.7,017.5,000.0,027.3,020.0,11.4,0000.0,0000.93,0005.22,0000.41
2023-12-26 15:53:00,SystemResetWarning,0823.8,5.00,000.00,018.7,017.5,000.0,027.3,020.0,11.3,0000.0,0000.90,0005.54,0000.41
2023-12-26 15:54:00,SystemResetWarning,0823.8,5.00,000.00,018.7,017.5,000.0,027.3,020.0,11.1,0000.0,0000.94,0005.69,0000.41
2023-12-26 15:55:00,SystemResetWarning,0823.8,5.00,000.00,018.7,017.5,000.0,027.3,020.0,11.3,0000.0,0000.97,0005.72,0000.41
2023-12-26 15:56:00,SystemResetWarning,0823.8,5.00,000.00,018.7,017.4,000.0,027.3,020.0,11.3,0000.0,0000.95,0005.64,0000.40
2023-12-26 15:57:00,SystemResetWarning,0823.8,4.99,000.00,018.7,017.4,000.0,027.3,020.0,11.3,0000.0,0000.93,0004.36,0000.41
2023-12-26 15:58:00,SystemResetWarning,0823.8,4.99,000.00,018.7,017.4,000.0,027.3,020.0,11.3,0000.0,0000.93,0004.37,0000.42
2023-12-26 15:59:00,SystemResetWarning,0823.9,5.00,000.00,018.7,017.4,000.0,027.3,020.0,11.5,0000.0,0000.94,0003.98,0000.42
